Data supplied by UK-AIR on 17/5/2022
All Data GMT hour ending 
Status: R =Ratified P=Provisional,P*=As supplied
,,Southampton A33,,,,,,,,,,,,,,,,,,,,,,,
Date,time,"PM<sub>10</sub> particulate matter (Hourly measured)",status,unit,"Nitric oxide",status,unit,"Nitrogen dioxide",status,unit,"Nitrogen oxides as nitrogen dioxide",status,unit
 
01-01-2021,01:00,66.668,R,ugm-3 (Ref.eq),8.53706,R,ugm-3,26.49288,R,ugm-3,39.58285,R,ugm-3
01-01-2021,02:00,26.087,R,ugm-3 (Ref.eq),3.46818,R,ugm-3,22.18546,R,ugm-3,27.50326,R,ugm-3
01-01-2021,03:00,20.290,R,ugm-3 (Ref.eq),1.53400,R,ugm-3,18.22415,R,ugm-3,20.57626,R,ugm-3
01-01-2021,04:00,16.425,R,ugm-3 (Ref.eq),1.46731,R,ugm-3,17.09799,R,ugm-3,19.34783,R,ugm-3
01-01-2021,05:00,15.459,R,ugm-3 (Ref.eq),1.76744,R,ugm-3,16.58661,R,ugm-3,19.29664,R,ugm-3
01-01-2021,06:00,16.425,R,ugm-3 (Ref.eq),1.63405,R,ugm-3,15.97218,R,ugm-3,18.47769,R,ugm-3
01-01-2021,07:00,14.493,R,ugm-3 (Ref.eq),2.63449,R,ugm-3,14.69412,R,ugm-3,18.73361,R,ugm-3
01-01-2021,08:00,14.493,R,ugm-3 (Ref.eq),1.53400,R,ugm-3,14.18056,R,ugm-3,16.53267,R,ugm-3
01-01-2021,09:00,15.459,R,ugm-3 (Ref.eq),3.20140,R,ugm-3,14.43908,R,ugm-3,19.34783,R,ugm-3
01-01-2021,10:00,20.290,R,ugm-3 (Ref.eq),4.60201,R,ugm-3,13.62231,R,ugm-3,20.67863,R,ugm-3
01-01-2021,11:00,18.358,R,ugm-3 (Ref.eq),11.13820,R,ugm-3,18.34150,R,ugm-3,35.41983,R,ugm-3
01-01-2021,12:00,18.358,R,ugm-3 (Ref.eq),16.17373,R,ugm-3,19.98726,R,ugm-3,44.78663,R,ugm-3
01-01-2021,13:00,22.223,R,ugm-3 (Ref.eq),26.64497,R,ugm-3,24.40547,R,ugm-3,65.26052,R,ugm-3
01-01-2021,14:00,30.918,R,ugm-3 (Ref.eq),11.20489,R,ugm-3,17.82975,R,ugm-3,35.01035,R,ugm-3
01-01-2021,15:00,29.952,R,ugm-3 (Ref.eq),5.76919,R,ugm-3,17.10469,R,ugm-3,25.95066,R,ugm-3
01-01-2021,16:00,31.885,R,ugm-3 (Ref.eq),34.68182,R,ugm-3,32.19808,R,ugm-3,85.37612,R,ugm-3
01-01-2021,17:00,28.020,R,ugm-3 (Ref.eq),23.34353,R,ugm-3,28.64866,R,ugm-3,64.44157,R,ugm-3
01-01-2021,18:00,27.054,R,ugm-3 (Ref.eq),22.10966,R,ugm-3,25.78039,R,ugm-3,59.68139,R,ugm-3
01-01-2021,19:00,28.020,R,ugm-3 (Ref.eq),15.97364,R,ugm-3,25.82201,R,ugm-3,50.31459,R,ugm-3
01-01-2021,20:00,24.155,R,ugm-3 (Ref.eq),16.54056,R,ugm-3,26.13000,R,ugm-3,51.49183,R,ugm-3
01-01-2021,21:00,19.324,R,ugm-3 (Ref.eq),8.43702,R,ugm-3,20.69178,R,ugm-3,33.62837,R,ugm-3
01-01-2021,22:00,16.425,R,ugm-3 (Ref.eq),4.46862,R,ugm-3,19.04769,R,ugm-3,25.89947,R,ugm-3
01-01-2021,23:00,14.493,R,ugm-3 (Ref.eq),3.46818,R,ugm-3,23.19209,R,ugm-3,28.50989,R,ugm-3
01-01-2021,24:00,13.527,R,ugm-3 (Ref.eq),1.10048,R,ugm-3,15.51069,R,ugm-3,17.19807,R,ugm-3
02-01-2021,01:00,12.561,R,ugm-3 (Ref.eq),0.53430,R,ugm-3,15.99786,R,ugm-3,16.81710,R,ugm-3
02-01-2021,02:00,12.561,R,ugm-3 (Ref.eq),0.53430,R,ugm-3,8.75146,R,ugm-3,9.57071,R,ugm-3
02-01-2021,03:00,14.493,R,ugm-3 (Ref.eq),0.40072,R,ugm-3,10.05007,R,ugm-3,10.66450,R,ugm-3
02-01-2021,04:00,7.730,R,ugm-3 (Ref.eq),0.40072,R,ugm-3,7.94793,R,ugm-3,8.56237,R,ugm-3
02-01-2021,05:00,6.763,R,ugm-3 (Ref.eq),0.00000,R,ugm-3,5.17844,R,ugm-3,5.17844,R,ugm-3
02-01-2021,06:00,8.696,R,ugm-3 (Ref.eq),1.26896,R,ugm-3,8.25735,R,ugm-3,10.20306,R,ugm-3
02-01-2021,07:00,11.594,R,ugm-3 (Ref.eq),0.83484,R,ugm-3,9.99969,R,ugm-3,11.27976,R,ugm-3
02-01-2021,08:00,7.730,R,ugm-3 (Ref.eq),1.30235,R,ugm-3,9.02649,R,ugm-3,11.02341,R,ugm-3
02-01-2021,09:00,5.797,R,ugm-3 (Ref.eq),1.00181,R,ugm-3,11.07674,R,ugm-3,12.61283,R,ugm-3
02-01-2021,10:00,7.730,R,ugm-3 (Ref.eq),9.58398,R,ugm-3,21.09239,R,ugm-3,35.78761,R,ugm-3
02-01-2021,11:00,9.662,R,ugm-3 (Ref.eq),4.47475,R,ugm-3,12.10933,R,ugm-3,18.97051,R,ugm-3
02-01-2021,12:00,6.763,R,ugm-3 (Ref.eq),2.57131,R,ugm-3,7.43969,R,ugm-3,11.38231,R,ugm-3
02-01-2021,13:00,2.899,R,ugm-3 (Ref.eq),3.33936,R,ugm-3,7.18491,R,ugm-3,12.30520,R,ugm-3
02-01-2021,14:00,8.696,R,ugm-3 (Ref.eq),2.00362,R,ugm-3,7.69488,R,ugm-3,10.76705,R,ugm-3
02-01-2021,15:00,7.730,R,ugm-3 (Ref.eq),2.67149,R,ugm-3,10.41365,R,ugm-3,14.50988,R,ugm-3
02-01-2021,16:00,10.628,R,ugm-3 (Ref.eq),14.75999,R,ugm-3,28.84507,R,ugm-3,51.47674,R,ugm-3
02-01-2021,17:00,14.493,R,ugm-3 (Ref.eq),19.86922,R,ugm-3,38.59721,R,ugm-3,69.06292,R,ugm-3
02-01-2021,18:00,12.561,R,ugm-3 (Ref.eq),0.60109,R,ugm-3,11.53736,R,ugm-3,12.45901,R,ugm-3
02-01-2021,19:00,8.696,R,ugm-3 (Ref.eq),0.66787,R,ugm-3,11.12733,R,ugm-3,12.15138,R,ugm-3
02-01-2021,20:00,4.831,R,ugm-3 (Ref.eq),0.50090,R,ugm-3,8.46085,R,ugm-3,9.22890,R,ugm-3
02-01-2021,21:00,3.865,R,ugm-3 (Ref.eq),0.46751,R,ugm-3,7.48663,R,ugm-3,8.20346,R,ugm-3
02-01-2021,22:00,5.797,R,ugm-3 (Ref.eq),0.33394,R,ugm-3,8.15288,R,ugm-3,8.66491,R,ugm-3
02-01-2021,23:00,14.493,R,ugm-3 (Ref.eq),0.43412,R,ugm-3,7.94800,R,ugm-3,8.61364,R,ugm-3
02-01-2021,24:00,13.527,R,ugm-3 (Ref.eq),0.43412,R,ugm-3,9.28106,R,ugm-3,9.94670,R,ugm-3
03-01-2021,01:00,15.459,R,ugm-3 (Ref.eq),0.26752,R,ugm-3,11.16262,R,ugm-3,11.57280,R,ugm-3
03-01-2021,02:00,17.392,R,ugm-3 (Ref.eq),0.62420,R,ugm-3,7.87658,R,ugm-3,8.83368,R,ugm-3
03-01-2021,03:00,12.561,R,ugm-3 (Ref.eq),0.33439,R,ugm-3,5.23943,R,ugm-3,5.75216,R,ugm-3
03-01-2021,04:00,6.763,R,ugm-3 (Ref.eq),0.23408,R,ugm-3,4.16064,R,ugm-3,4.51956,R,ugm-3
03-01-2021,05:00,5.797,R,ugm-3 (Ref.eq),0.40127,R,ugm-3,3.08254,R,ugm-3,3.69782,R,ugm-3
03-01-2021,06:00,6.763,R,ugm-3 (Ref.eq),0.30096,R,ugm-3,3.49315,R,ugm-3,3.95461,R,ugm-3
03-01-2021,07:00,5.797,R,ugm-3 (Ref.eq),0.60191,R,ugm-3,3.54528,R,ugm-3,4.46820,R,ugm-3
03-01-2021,08:00,8.696,R,ugm-3 (Ref.eq),0.66879,R,ugm-3,5.34301,R,ugm-3,6.36846,R,ugm-3
03-01-2021,09:00,10.628,R,ugm-3 (Ref.eq),2.20700,R,ugm-3,9.09612,R,ugm-3,12.48014,R,ugm-3
03-01-2021,10:00,10.628,R,ugm-3 (Ref.eq),0.76911,R,ugm-3,4.47017,R,ugm-3,5.64945,R,ugm-3
03-01-2021,11:00,7.730,R,ugm-3 (Ref.eq),0.93630,R,ugm-3,4.83010,R,ugm-3,6.26575,R,ugm-3
03-01-2021,12:00,4.831,R,ugm-3 (Ref.eq),1.17038,R,ugm-3,5.24157,R,ugm-3,7.03613,R,ugm-3
03-01-2021,13:00,5.797,R,ugm-3 (Ref.eq),1.27070,R,ugm-3,5.90949,R,ugm-3,7.85786,R,ugm-3
03-01-2021,14:00,5.797,R,ugm-3 (Ref.eq),1.87261,R,ugm-3,6.63005,R,ugm-3,9.50134,R,ugm-3
03-01-2021,15:00,2.899,R,ugm-3 (Ref.eq),1.90605,R,ugm-3,7.91410,R,ugm-3,10.83666,R,ugm-3
03-01-2021,16:00,6.763,R,ugm-3 (Ref.eq),1.30414,R,ugm-3,9.35060,R,ugm-3,11.35025,R,ugm-3
03-01-2021,17:00,9.662,R,ugm-3 (Ref.eq),0.93630,R,ugm-3,12.94476,R,ugm-3,14.38040,R,ugm-3
03-01-2021,18:00,14.493,R,ugm-3 (Ref.eq),1.07006,R,ugm-3,13.66412,R,ugm-3,15.30486,R,ugm-3
03-01-2021,19:00,9.662,R,ugm-3 (Ref.eq),1.03662,R,ugm-3,10.42845,R,ugm-3,12.01791,R,ugm-3
03-01-2021,20:00,5.797,R,ugm-3 (Ref.eq),0.76911,R,ugm-3,10.63320,R,ugm-3,11.81247,R,ugm-3
03-01-2021,21:00,6.763,R,ugm-3 (Ref.eq),0.86942,R,ugm-3,12.99595,R,ugm-3,14.32905,R,ugm-3
03-01-2021,22:00,5.797,R,ugm-3 (Ref.eq),0.66879,R,ugm-3,11.24924,R,ugm-3,12.27470,R,ugm-3
03-01-2021,23:00,14.493,R,ugm-3 (Ref.eq),0.50159,R,ugm-3,9.34855,R,ugm-3,10.11764,R,ugm-3
03-01-2021,24:00,11.594,R,ugm-3 (Ref.eq),0.43471,R,ugm-3,7.96169,R,ugm-3,8.62824,R,ugm-3
04-01-2021,01:00,16.425,R,ugm-3 (Ref.eq),0.35717,R,ugm-3,6.17455,R,ugm-3,6.72221,R,ugm-3
04-01-2021,02:00,20.290,R,ugm-3 (Ref.eq),0.40182,R,ugm-3,4.32265,R,ugm-3,4.93877,R,ugm-3
04-01-2021,03:00,13.527,R,ugm-3 (Ref.eq),0.53576,R,ugm-3,3.49993,R,ugm-3,4.32142,R,ugm-3
04-01-2021,04:00,9.662,R,ugm-3 (Ref.eq),0.33485,R,ugm-3,2.98486,R,ugm-3,3.49830,R,ugm-3
04-01-2021,05:00,13.527,R,ugm-3 (Ref.eq),0.43531,R,ugm-3,2.62505,R,ugm-3,3.29251,R,ugm-3
04-01-2021,06:00,7.730,R,ugm-3 (Ref.eq),0.56925,R,ugm-3,4.68328,R,ugm-3,5.55612,R,ugm-3
04-01-2021,07:00,4.831,R,ugm-3 (Ref.eq),0.83713,R,ugm-3,7.87372,R,ugm-3,9.15730,R,ugm-3
04-01-2021,08:00,5.797,R,ugm-3 (Ref.eq),0.97107,R,ugm-3,12.45278,R,ugm-3,13.94173,R,ugm-3
04-01-2021,09:00,6.763,R,ugm-3 (Ref.eq),1.27243,R,ugm-3,9.31553,R,ugm-3,11.26657,R,ugm-3
04-01-2021,10:00,6.763,R,ugm-3 (Ref.eq),1.23895,R,ugm-3,8.23507,R,ugm-3,10.13477,R,ugm-3
04-01-2021,11:00,5.797,R,ugm-3 (Ref.eq),1.54032,R,ugm-3,9.21346,R,ugm-3,11.57524,R,ugm-3
04-01-2021,12:00,5.797,R,ugm-3 (Ref.eq),1.43986,R,ugm-3,9.21315,R,ugm-3,11.42090,R,ugm-3
04-01-2021,13:00,5.797,R,ugm-3 (Ref.eq),1.17198,R,ugm-3,7.82330,R,ugm-3,9.62031,R,ugm-3
04-01-2021,14:00,7.730,R,ugm-3 (Ref.eq),1.30592,R,ugm-3,8.02949,R,ugm-3,10.03188,R,ugm-3
04-01-2021,15:00,9.662,R,ugm-3 (Ref.eq),1.00455,R,ugm-3,7.97713,R,ugm-3,9.51742,R,ugm-3
04-01-2021,16:00,7.730,R,ugm-3 (Ref.eq),1.03804,R,ugm-3,8.38879,R,ugm-3,9.98043,R,ugm-3
04-01-2021,17:00,9.662,R,ugm-3 (Ref.eq),0.83713,R,ugm-3,8.90263,R,ugm-3,10.18621,R,ugm-3
04-01-2021,18:00,5.797,R,ugm-3 (Ref.eq),0.66970,R,ugm-3,9.57091,R,ugm-3,10.59778,R,ugm-3
04-01-2021,19:00,2.899,R,ugm-3 (Ref.eq),0.60273,R,ugm-3,8.18168,R,ugm-3,9.10586,R,ugm-3
04-01-2021,20:00,8.696,R,ugm-3 (Ref.eq),0.73667,R,ugm-3,7.51330,R,ugm-3,8.64285,R,ugm-3
04-01-2021,21:00,8.696,R,ugm-3 (Ref.eq),0.43531,R,ugm-3,6.63780,R,ugm-3,7.30526,R,ugm-3
04-01-2021,22:00,8.696,R,ugm-3 (Ref.eq),0.43531,R,ugm-3,5.19733,R,ugm-3,5.86479,R,ugm-3
04-01-2021,23:00,5.797,R,ugm-3 (Ref.eq),0.60273,R,ugm-3,5.60941,R,ugm-3,6.53358,R,ugm-3
04-01-2021,24:00,4.831,R,ugm-3 (Ref.eq),0.60273,R,ugm-3,3.44869,R,ugm-3,4.37287,R,ugm-3
05-01-2021,01:00,6.763,R,ugm-3 (Ref.eq),0.35766,R,ugm-3,3.23064,R,ugm-3,3.77905,R,ugm-3
05-01-2021,02:00,5.797,R,ugm-3 (Ref.eq),0.49179,R,ugm-3,1.71950,R,ugm-3,2.47356,R,ugm-3
05-01-2021,03:00,7.730,R,ugm-3 (Ref.eq),0.60356,R,ugm-3,1.70272,R,ugm-3,2.62815,R,ugm-3
05-01-2021,04:00,8.696,R,ugm-3 (Ref.eq),0.36884,R,ugm-3,1.59882,R,ugm-3,2.16436,R,ugm-3
05-01-2021,05:00,9.662,R,ugm-3 (Ref.eq),0.50296,R,ugm-3,1.70236,R,ugm-3,2.47356,R,ugm-3
05-01-2021,06:00,9.662,R,ugm-3 (Ref.eq),0.50296,R,ugm-3,2.21768,R,ugm-3,2.98888,R,ugm-3
05-01-2021,07:00,5.797,R,ugm-3 (Ref.eq),0.63709,R,ugm-3,3.60954,R,ugm-3,4.58639,R,ugm-3
05-01-2021,08:00,13.527,R,ugm-3 (Ref.eq),0.60356,R,ugm-3,5.77378,R,ugm-3,6.69922,R,ugm-3
05-01-2021,09:00,6.763,R,ugm-3 (Ref.eq),0.93886,R,ugm-3,7.16635,R,ugm-3,8.60592,R,ugm-3
05-01-2021,10:00,3.865,R,ugm-3 (Ref.eq),0.97240,R,ugm-3,6.70267,R,ugm-3,8.19366,R,ugm-3
05-01-2021,11:00,2.899,R,ugm-3 (Ref.eq),1.24064,R,ugm-3,7.27048,R,ugm-3,9.17278,R,ugm-3
05-01-2021,12:00,5.797,R,ugm-3 (Ref.eq),1.91126,R,ugm-3,7.37593,R,ugm-3,10.30649,R,ugm-3
05-01-2021,13:00,10.628,R,ugm-3 (Ref.eq),1.71007,R,ugm-3,6.18997,R,ugm-3,8.81205,R,ugm-3
05-01-2021,14:00,8.696,R,ugm-3 (Ref.eq),1.64301,R,ugm-3,6.91119,R,ugm-3,9.43044,R,ugm-3
05-01-2021,15:00,,,,,,,,,,,,
05-01-2021,16:00,20.290,R,ugm-3 (Ref.eq),181.60315,R,ugm-3,7.65383,R,ugm-3,286.10811,R,ugm-3
05-01-2021,17:00,5.797,R,ugm-3 (Ref.eq),1.14005,R,ugm-3,8.91916,R,ugm-3,10.66722,R,ugm-3
05-01-2021,18:00,3.865,R,ugm-3 (Ref.eq),0.97240,R,ugm-3,8.97010,R,ugm-3,10.46109,R,ugm-3
05-01-2021,19:00,3.865,R,ugm-3 (Ref.eq),0.67062,R,ugm-3,8.50524,R,ugm-3,9.53350,R,ugm-3
05-01-2021,20:00,6.763,R,ugm-3 (Ref.eq),0.70415,R,ugm-3,6.85632,R,ugm-3,7.93600,R,ugm-3
05-01-2021,21:00,8.696,R,ugm-3 (Ref.eq),0.60356,R,ugm-3,6.49523,R,ugm-3,7.42067,R,ugm-3
05-01-2021,22:00,11.594,R,ugm-3 (Ref.eq),0.60356,R,ugm-3,7.88661,R,ugm-3,8.81205,R,ugm-3
05-01-2021,23:00,12.561,R,ugm-3 (Ref.eq),0.36884,R,ugm-3,6.44287,R,ugm-3,7.00841,R,ugm-3
05-01-2021,24:00,7.730,R,ugm-3 (Ref.eq),0.80474,R,ugm-3,4.84691,R,ugm-3,6.08083,R,ugm-3
06-01-2021,01:00,10.628,R,ugm-3 (Ref.eq),0.44708,R,ugm-3,3.91361,R,ugm-3,4.59913,R,ugm-3
06-01-2021,02:00,6.763,R,ugm-3 (Ref.eq),0.44708,R,ugm-3,3.22717,R,ugm-3,3.91269,R,ugm-3
06-01-2021,03:00,11.594,R,ugm-3 (Ref.eq),0.57003,R,ugm-3,3.09014,R,ugm-3,3.96418,R,ugm-3
06-01-2021,04:00,7.730,R,ugm-3 (Ref.eq),0.43591,R,ugm-3,3.03838,R,ugm-3,3.70676,R,ugm-3
06-01-2021,05:00,6.763,R,ugm-3 (Ref.eq),0.77122,R,ugm-3,3.75983,R,ugm-3,4.94235,R,ugm-3
06-01-2021,06:00,4.831,R,ugm-3 (Ref.eq),1.30772,R,ugm-3,3.76093,R,ugm-3,5.76607,R,ugm-3
06-01-2021,07:00,3.865,R,ugm-3 (Ref.eq),0.77122,R,ugm-3,6.07655,R,ugm-3,7.25907,R,ugm-3
06-01-2021,08:00,6.763,R,ugm-3 (Ref.eq),1.10653,R,ugm-3,9.62956,R,ugm-3,11.32621,R,ugm-3
06-01-2021,09:00,4.831,R,ugm-3 (Ref.eq),1.34125,R,ugm-3,11.22600,R,ugm-3,13.28256,R,ugm-3
06-01-2021,10:00,5.797,R,ugm-3 (Ref.eq),1.77716,R,ugm-3,9.11611,R,ugm-3,11.84104,R,ugm-3
06-01-2021,11:00,9.662,R,ugm-3 (Ref.eq),1.74362,R,ugm-3,8.54973,R,ugm-3,11.22325,R,ugm-3
06-01-2021,12:00,6.763,R,ugm-3 (Ref.eq),2.34719,R,ugm-3,9.01431,R,ugm-3,12.61328,R,ugm-3
06-01-2021,13:00,4.831,R,ugm-3 (Ref.eq),2.91722,R,ugm-3,11.12628,R,ugm-3,15.59928,R,ugm-3
06-01-2021,14:00,6.763,R,ugm-3 (Ref.eq),2.85016,R,ugm-3,14.88439,R,ugm-3,19.25456,R,ugm-3
06-01-2021,15:00,7.730,R,ugm-3 (Ref.eq),2.85016,R,ugm-3,17.40704,R,ugm-3,21.77722,R,ugm-3
06-01-2021,16:00,13.527,R,ugm-3 (Ref.eq),2.28012,R,ugm-3,18.69294,R,ugm-3,22.18908,R,ugm-3
06-01-2021,17:00,12.561,R,ugm-3 (Ref.eq),18.40865,R,ugm-3,32.98683,R,ugm-3,61.21303,R,ugm-3
06-01-2021,18:00,25.121,R,ugm-3 (Ref.eq),164.23597,R,ugm-3,75.70848,R,ugm-3,327.53346,R,ugm-3
06-01-2021,19:00,19.324,R,ugm-3 (Ref.eq),94.69220,R,ugm-3,61.71662,R,ugm-3,206.90930,R,ugm-3
06-01-2021,20:00,20.290,R,ugm-3 (Ref.eq),38.66151,R,ugm-3,44.92100,R,ugm-3,104.20115,R,ugm-3
06-01-2021,21:00,18.358,R,ugm-3 (Ref.eq),31.04992,R,ugm-3,40.94117,R,ugm-3,88.55039,R,ugm-3
06-01-2021,22:00,30.918,R,ugm-3 (Ref.eq),63.27344,R,ugm-3,38.89663,R,ugm-3,135.91455,R,ugm-3
06-01-2021,23:00,25.121,R,ugm-3 (Ref.eq),42.68526,R,ugm-3,34.32382,R,ugm-3,99.77363,R,ugm-3
06-01-2021,24:00,26.087,R,ugm-3 (Ref.eq),19.41458,R,ugm-3,30.05438,R,ugm-3,59.82299,R,ugm-3
07-01-2021,01:00,29.952,R,ugm-3 (Ref.eq),3.57670,R,ugm-3,22.90688,R,ugm-3,28.39109,R,ugm-3
07-01-2021,02:00,20.290,R,ugm-3 (Ref.eq),0.67063,R,ugm-3,15.29316,R,ugm-3,16.32145,R,ugm-3
07-01-2021,03:00,22.223,R,ugm-3 (Ref.eq),0.60357,R,ugm-3,13.01292,R,ugm-3,13.93838,R,ugm-3
07-01-2021,04:00,18.358,R,ugm-3 (Ref.eq),0.50297,R,ugm-3,13.37289,R,ugm-3,14.14411,R,ugm-3
07-01-2021,05:00,17.392,R,ugm-3 (Ref.eq),0.53651,R,ugm-3,11.26416,R,ugm-3,12.08678,R,ugm-3
07-01-2021,06:00,17.392,R,ugm-3 (Ref.eq),0.33532,R,ugm-3,12.13840,R,ugm-3,12.65255,R,ugm-3
07-01-2021,07:00,7.730,R,ugm-3 (Ref.eq),0.57004,R,ugm-3,11.82994,R,ugm-3,12.70398,R,ugm-3
07-01-2021,08:00,19.324,R,ugm-3 (Ref.eq),1.94483,R,ugm-3,20.83150,R,ugm-3,23.81354,R,ugm-3
07-01-2021,09:00,21.256,R,ugm-3 (Ref.eq),8.21524,R,ugm-3,23.30379,R,ugm-3,35.90032,R,ugm-3
07-01-2021,10:00,14.493,R,ugm-3 (Ref.eq),4.19145,R,ugm-3,21.39852,R,ugm-3,27.82532,R,ugm-3
07-01-2021,11:00,14.493,R,ugm-3 (Ref.eq),11.50134,R,ugm-3,19.13954,R,ugm-3,36.77468,R,ugm-3
07-01-2021,12:00,16.425,R,ugm-3 (Ref.eq),14.45212,R,ugm-3,23.92447,R,ugm-3,46.08408,R,ugm-3
07-01-2021,13:00,14.493,R,ugm-3 (Ref.eq),16.09517,R,ugm-3,23.82252,R,ugm-3,48.50144,R,ugm-3
07-01-2021,14:00,21.256,R,ugm-3 (Ref.eq),12.64141,R,ugm-3,21.71184,R,ugm-3,41.09507,R,ugm-3
07-01-2021,15:00,28.020,R,ugm-3 (Ref.eq),44.19465,R,ugm-3,36.18216,R,ugm-3,103.94634,R,ugm-3
07-01-2021,16:00,24.155,R,ugm-3 (Ref.eq),28.80365,R,ugm-3,27.48137,R,ugm-3,71.64634,R,ugm-3
07-01-2021,17:00,25.121,R,ugm-3 (Ref.eq),18.87829,R,ugm-3,26.13857,R,ugm-3,55.08488,R,ugm-3
07-01-2021,18:00,26.087,R,ugm-3 (Ref.eq),22.43264,R,ugm-3,38.89597,R,ugm-3,73.29220,R,ugm-3
07-01-2021,19:00,27.054,R,ugm-3 (Ref.eq),54.48885,R,ugm-3,47.91466,R,ugm-3,131.46307,R,ugm-3
07-01-2021,20:00,22.223,R,ugm-3 (Ref.eq),22.43264,R,ugm-3,29.32940,R,ugm-3,63.72564,R,ugm-3
07-01-2021,21:00,22.223,R,ugm-3 (Ref.eq),17.73822,R,ugm-3,26.60083,R,ugm-3,53.79905,R,ugm-3
07-01-2021,22:00,24.155,R,ugm-3 (Ref.eq),24.34394,R,ugm-3,29.17617,R,ugm-3,66.50303,R,ugm-3
07-01-2021,23:00,23.189,R,ugm-3 (Ref.eq),17.20171,R,ugm-3,25.93190,R,ugm-3,52.30749,R,ugm-3
07-01-2021,24:00,22.223,R,ugm-3 (Ref.eq),40.10380,R,ugm-3,30.52223,R,ugm-3,92.01386,R,ugm-3
08-01-2021,01:00,23.189,R,ugm-3 (Ref.eq),42.56325,R,ugm-3,33.25650,R,ugm-3,98.51923,R,ugm-3
08-01-2021,02:00,21.256,R,ugm-3 (Ref.eq),49.04610,R,ugm-3,31.67465,R,ugm-3,106.87761,R,ugm-3
08-01-2021,03:00,22.223,R,ugm-3 (Ref.eq),66.19211,R,ugm-3,32.87461,R,ugm-3,134.36776,R,ugm-3
08-01-2021,04:00,19.324,R,ugm-3 (Ref.eq),45.16756,R,ugm-3,25.08408,R,ugm-3,94.34004,R,ugm-3
08-01-2021,05:00,16.425,R,ugm-3 (Ref.eq),56.36724,R,ugm-3,27.95103,R,ugm-3,114.37960,R,ugm-3
08-01-2021,06:00,26.087,R,ugm-3 (Ref.eq),103.24494,R,ugm-3,29.80817,R,ugm-3,188.11487,R,ugm-3
08-01-2021,07:00,25.121,R,ugm-3 (Ref.eq),154.01234,R,ugm-3,39.00950,R,ugm-3,275.15846,R,ugm-3
08-01-2021,08:00,44.445,R,ugm-3 (Ref.eq),270.90479,R,ugm-3,62.69022,R,ugm-3,478.07177,R,ugm-3
08-01-2021,09:00,31.885,R,ugm-3 (Ref.eq),220.94215,R,ugm-3,53.23122,R,ugm-3,392.00446,R,ugm-3
08-01-2021,10:00,35.749,R,ugm-3 (Ref.eq),190.29393,R,ugm-3,54.49322,R,ugm-3,346.27318,R,ugm-3
08-01-2021,11:00,39.614,R,ugm-3 (Ref.eq),137.88346,R,ugm-3,45.44759,R,ugm-3,256.86595,R,ugm-3
08-01-2021,12:00,31.885,R,ugm-3 (Ref.eq),68.10343,R,ugm-3,44.84516,R,ugm-3,149.26897,R,ugm-3
08-01-2021,13:00,24.155,R,ugm-3 (Ref.eq),15.55883,R,ugm-3,29.63364,R,ugm-3,53.49019,R,ugm-3
08-01-2021,14:00,25.121,R,ugm-3 (Ref.eq),9.62368,R,ugm-3,28.30325,R,ugm-3,43.05935,R,ugm-3
08-01-2021,15:00,26.087,R,ugm-3 (Ref.eq),6.70639,R,ugm-3,26.04512,R,ugm-3,36.32811,R,ugm-3
08-01-2021,16:00,25.121,R,ugm-3 (Ref.eq),6.80699,R,ugm-3,28.76835,R,ugm-3,39.20558,R,ugm-3
08-01-2021,17:00,28.020,R,ugm-3 (Ref.eq),5.49924,R,ugm-3,33.65100,R,ugm-3,42.08306,R,ugm-3
08-01-2021,18:00,37.682,R,ugm-3 (Ref.eq),10.22725,R,ugm-3,38.21969,R,ugm-3,53.90126,R,ugm-3
08-01-2021,19:00,27.054,R,ugm-3 (Ref.eq),4.35916,R,ugm-3,41.66790,R,ugm-3,48.35184,R,ugm-3
08-01-2021,20:00,42.513,R,ugm-3 (Ref.eq),15.55883,R,ugm-3,50.90640,R,ugm-3,74.76294,R,ugm-3
08-01-2021,21:00,36.716,R,ugm-3 (Ref.eq),24.04242,R,ugm-3,50.69289,R,ugm-3,87.55743,R,ugm-3
08-01-2021,22:00,31.885,R,ugm-3 (Ref.eq),6.67286,R,ugm-3,47.72897,R,ugm-3,57.96055,R,ugm-3
08-01-2021,23:00,29.952,R,ugm-3 (Ref.eq),7.51116,R,ugm-3,41.25387,R,ugm-3,52.77082,R,ugm-3
08-01-2021,24:00,23.189,R,ugm-3 (Ref.eq),2.54843,R,ugm-3,31.90674,R,ugm-3,35.81428,R,ugm-3
09-01-2021,01:00,18.358,R,ugm-3 (Ref.eq),0.53652,R,ugm-3,23.40691,R,ugm-3,24.22956,R,ugm-3
09-01-2021,02:00,15.459,R,ugm-3 (Ref.eq),0.35768,R,ugm-3,15.12549,R,ugm-3,15.67392,R,ugm-3
09-01-2021,03:00,18.358,R,ugm-3 (Ref.eq),0.67065,R,ugm-3,12.36981,R,ugm-3,13.39812,R,ugm-3
09-01-2021,04:00,11.594,R,ugm-3 (Ref.eq),0.33532,R,ugm-3,12.06263,R,ugm-3,12.57678,R,ugm-3
09-01-2021,05:00,18.358,R,ugm-3 (Ref.eq),0.57005,R,ugm-3,12.88340,R,ugm-3,13.75746,R,ugm-3
09-01-2021,06:00,10.628,R,ugm-3 (Ref.eq),0.50299,R,ugm-3,12.62689,R,ugm-3,13.39812,R,ugm-3
09-01-2021,07:00,17.392,R,ugm-3 (Ref.eq),0.80478,R,ugm-3,12.01015,R,ugm-3,13.24412,R,ugm-3
09-01-2021,08:00,11.594,R,ugm-3 (Ref.eq),0.93891,R,ugm-3,11.59915,R,ugm-3,13.03879,R,ugm-3
09-01-2021,09:00,9.662,R,ugm-3 (Ref.eq),0.90537,R,ugm-3,11.44523,R,ugm-3,12.83345,R,ugm-3
09-01-2021,10:00,8.696,R,ugm-3 (Ref.eq),1.34129,R,ugm-3,10.36616,R,ugm-3,12.42278,R,ugm-3
09-01-2021,11:00,7.730,R,ugm-3 (Ref.eq),1.84428,R,ugm-3,10.51894,R,ugm-3,13.34679,R,ugm-3
09-01-2021,12:00,9.662,R,ugm-3 (Ref.eq),3.15204,R,ugm-3,13.80111,R,ugm-3,18.63417,R,ugm-3
09-01-2021,13:00,12.561,R,ugm-3 (Ref.eq),3.01791,R,ugm-3,16.06013,R,ugm-3,20.68752,R,ugm-3
09-01-2021,14:00,11.594,R,ugm-3 (Ref.eq),2.44786,R,ugm-3,13.08416,R,ugm-3,16.83749,R,ugm-3
09-01-2021,15:00,11.594,R,ugm-3 (Ref.eq),1.74368,R,ugm-3,12.26453,R,ugm-3,14.93814,R,ugm-3
09-01-2021,16:00,9.662,R,ugm-3 (Ref.eq),1.71015,R,ugm-3,12.77795,R,ugm-3,15.40014,R,ugm-3
09-01-2021,17:00,17.392,R,ugm-3 (Ref.eq),0.80478,R,ugm-3,14.01217,R,ugm-3,15.24614,R,ugm-3
09-01-2021,18:00,14.493,R,ugm-3 (Ref.eq),0.97244,R,ugm-3,16.21911,R,ugm-3,17.71016,R,ugm-3
09-01-2021,19:00,11.594,R,ugm-3 (Ref.eq),4.89572,R,ugm-3,20.82959,R,ugm-3,28.33626,R,ugm-3
09-01-2021,20:00,16.425,R,ugm-3 (Ref.eq),12.47403,R,ugm-3,23.32648,R,ugm-3,42.45306,R,ugm-3
09-01-2021,21:00,17.392,R,ugm-3 (Ref.eq),0.57005,R,ugm-3,8.67402,R,ugm-3,9.54809,R,ugm-3
09-01-2021,22:00,16.425,R,ugm-3 (Ref.eq),0.53652,R,ugm-3,8.77677,R,ugm-3,9.59942,R,ugm-3
09-01-2021,23:00,7.730,R,ugm-3 (Ref.eq),1.27423,R,ugm-3,7.54296,R,ugm-3,9.49675,R,ugm-3
09-01-2021,24:00,9.662,R,ugm-3 (Ref.eq),0.97244,R,ugm-3,7.95437,R,ugm-3,9.44542,R,ugm-3
10-01-2021,01:00,6.763,R,ugm-3 (Ref.eq),2.77204,R,ugm-3,11.13485,R,ugm-3,15.38524,R,ugm-3
10-01-2021,02:00,16.425,R,ugm-3 (Ref.eq),1.65428,R,ugm-3,7.10489,R,ugm-3,9.64142,R,ugm-3
10-01-2021,03:00,10.628,R,ugm-3 (Ref.eq),1.00598,R,ugm-3,6.15014,R,ugm-3,7.69262,R,ugm-3
10-01-2021,04:00,10.628,R,ugm-3 (Ref.eq),0.97245,R,ugm-3,5.89385,R,ugm-3,7.38492,R,ugm-3
10-01-2021,05:00,10.628,R,ugm-3 (Ref.eq),0.70419,R,ugm-3,6.76674,R,ugm-3,7.84648,R,ugm-3
10-01-2021,06:00,11.594,R,ugm-3 (Ref.eq),1.40837,R,ugm-3,7.27681,R,ugm-3,9.43628,R,ugm-3
10-01-2021,07:00,16.425,R,ugm-3 (Ref.eq),2.17963,R,ugm-3,9.01743,R,ugm-3,12.35948,R,ugm-3
10-01-2021,08:00,18.358,R,ugm-3 (Ref.eq),3.45387,R,ugm-3,11.98690,R,ugm-3,17.28276,R,ugm-3
10-01-2021,09:00,27.054,R,ugm-3 (Ref.eq),15.55918,R,ugm-3,19.78574,R,ugm-3,43.64281,R,ugm-3
10-01-2021,10:00,28.020,R,ugm-3 (Ref.eq),13.14482,R,ugm-3,19.69267,R,ugm-3,39.84779,R,ugm-3
10-01-2021,11:00,26.087,R,ugm-3 (Ref.eq),21.12561,R,ugm-3,28.17444,R,ugm-3,60.56658,R,ugm-3
10-01-2021,12:00,25.121,R,ugm-3 (Ref.eq),27.99981,R,ugm-3,27.68583,R,ugm-3,70.61827,R,ugm-3
10-01-2021,13:00,31.885,R,ugm-3 (Ref.eq),26.42378,R,ugm-3,26.76891,R,ugm-3,67.28480,R,ugm-3
10-01-2021,14:00,26.087,R,ugm-3 (Ref.eq),15.69331,R,ugm-3,19.68264,R,ugm-3,43.74538,R,ugm-3
10-01-2021,15:00,19.324,R,ugm-3 (Ref.eq),35.07521,R,ugm-3,33.09411,R,ugm-3,86.87535,R,ugm-3
10-01-2021,16:00,28.020,R,ugm-3 (Ref.eq),8.65144,R,ugm-3,19.09494,R,ugm-3,32.36030,R,ugm-3
10-01-2021,17:00,28.986,R,ugm-3 (Ref.eq),36.75185,R,ugm-3,40.26729,R,ugm-3,96.61934,R,ugm-3
10-01-2021,18:00,28.986,R,ugm-3 (Ref.eq),34.60576,R,ugm-3,43.40407,R,ugm-3,96.46548,R,ugm-3
10-01-2021,19:00,20.290,R,ugm-3 (Ref.eq),27.19503,R,ugm-3,31.07375,R,ugm-3,72.77221,R,ugm-3
10-01-2021,20:00,25.121,R,ugm-3 (Ref.eq),27.39622,R,ugm-3,29.22673,R,ugm-3,71.23368,R,ugm-3
10-01-2021,21:00,30.918,R,ugm-3 (Ref.eq),31.15189,R,ugm-3,33.21211,R,ugm-3,80.97767,R,ugm-3
10-01-2021,22:00,31.885,R,ugm-3 (Ref.eq),20.68968,R,ugm-3,29.25312,R,ugm-3,60.97685,R,ugm-3
10-01-2021,23:00,28.020,R,ugm-3 (Ref.eq),14.21787,R,ugm-3,30.09913,R,ugm-3,51.89956,R,ugm-3
10-01-2021,24:00,28.986,R,ugm-3 (Ref.eq),9.55682,R,ugm-3,27.65583,R,ugm-3,42.30942,R,ugm-3
11-01-2021,01:00,19.324,R,ugm-3 (Ref.eq),8.58447,R,ugm-3,25.63892,R,ugm-3,38.80159,R,ugm-3
11-01-2021,02:00,12.561,R,ugm-3 (Ref.eq),3.44273,R,ugm-3,7.22244,R,ugm-3,12.50122,R,ugm-3
11-01-2021,03:00,9.662,R,ugm-3 (Ref.eq),6.87428,R,ugm-3,9.38980,R,ugm-3,19.93022,R,ugm-3
11-01-2021,04:00,8.696,R,ugm-3 (Ref.eq),6.50542,R,ugm-3,11.18501,R,ugm-3,21.15985,R,ugm-3
11-01-2021,05:00,4.831,R,ugm-3 (Ref.eq),10.19406,R,ugm-3,18.38903,R,ugm-3,34.01970,R,ugm-3
11-01-2021,06:00,2.899,R,ugm-3 (Ref.eq),17.73900,R,ugm-3,25.21347,R,ugm-3,52.41289,R,ugm-3
11-01-2021,07:00,4.831,R,ugm-3 (Ref.eq),38.32831,R,ugm-3,35.34851,R,ugm-3,94.11776,R,ugm-3
11-01-2021,08:00,5.797,R,ugm-3 (Ref.eq),58.44816,R,ugm-3,46.04968,R,ugm-3,135.66893,R,ugm-3
11-01-2021,09:00,10.628,R,ugm-3 (Ref.eq),71.02306,R,ugm-3,56.02332,R,ugm-3,164.92383,R,ugm-3
11-01-2021,10:00,9.662,R,ugm-3 (Ref.eq),47.51637,R,ugm-3,46.41647,R,ugm-3,119.27389,R,ugm-3
11-01-2021,11:00,8.696,R,ugm-3 (Ref.eq),33.93547,R,ugm-3,40.70076,R,ugm-3,92.73443,R,ugm-3
11-01-2021,12:00,6.763,R,ugm-3 (Ref.eq),27.02766,R,ugm-3,35.05126,R,ugm-3,76.49309,R,ugm-3
11-01-2021,13:00,7.730,R,ugm-3 (Ref.eq),33.36541,R,ugm-3,33.94090,R,ugm-3,85.10049,R,ugm-3
11-01-2021,14:00,5.797,R,ugm-3 (Ref.eq),22.63483,R,ugm-3,29.74674,R,ugm-3,64.45299,R,ugm-3
11-01-2021,15:00,30.918,R,ugm-3 (Ref.eq),30.91750,R,ugm-3,34.26161,R,ugm-3,81.66778,R,ugm-3
11-01-2021,16:00,12.561,R,ugm-3 (Ref.eq),41.78222,R,ugm-3,46.03775,R,ugm-3,110.10292,R,ugm-3
11-01-2021,17:00,9.662,R,ugm-3 (Ref.eq),43.62653,R,ugm-3,39.82836,R,ugm-3,106.72144,R,ugm-3
11-01-2021,18:00,7.730,R,ugm-3 (Ref.eq),35.34386,R,ugm-3,34.49373,R,ugm-3,88.68690,R,ugm-3
11-01-2021,19:00,9.662,R,ugm-3 (Ref.eq),21.22644,R,ugm-3,29.39575,R,ugm-3,61.94250,R,ugm-3
11-01-2021,20:00,5.797,R,ugm-3 (Ref.eq),14.28509,R,ugm-3,25.12976,R,ugm-3,47.03326,R,ugm-3
11-01-2021,21:00,5.797,R,ugm-3 (Ref.eq),13.27910,R,ugm-3,20.72906,R,ugm-3,41.09006,R,ugm-3
11-01-2021,22:00,6.763,R,ugm-3 (Ref.eq),5.96889,R,ugm-3,11.49533,R,ugm-3,20.64750,R,ugm-3